K7AEL Weather Reports


Display with metric or nautical units.
time (UTC)temp
F
wind
direction
speed
MPH
gust
MPH
rain 1hr
in
rain 24hr
in
rain mn
in
humidity
%
barometer
mb
20260506033219 68 190 0.0 3.0 0.00 0.18 0.18 41 1013.5
20260506032715 68 208 2.0 4.0 0.00 0.18 0.18 41 1013.6
20260506032212 68 246 2.0 6.0 0.00 0.18 0.18 42 1013.4
20260506031709 68 283 2.0 6.0 0.00 0.18 0.18 41 1013.2
20260506031206 68 217 2.0 3.0 0.00 0.18 0.18 40 1013.3
20260506030705 69 200 0.0 2.0 0.00 0.18 0.18 38 1012.8
20260506030202 68 302 3.0 6.0 0.00 0.18 0.18 37 1012.9
20260506025658 68 277 2.0 3.0 0.00 0.18 0.18 37 1012.8
20260506025154 68 194 0.0 1.0 0.00 0.18 0.18 37 1012.8
20260506024652 68 203 0.0 3.0 0.00 0.18 0.18 37 1012.8
20260506024148 69 198 1.0 2.0 0.00 0.18 0.18 37 1012.6
20260506023644 69 185 2.0 3.0 0.00 0.18 0.18 37 1012.6
20260506023142 69 242 1.0 4.0 0.00 0.18 0.18 36 1012.4
20260506022639 69 303 2.0 4.0 0.00 0.18 0.18 36 1012.5
20260506022136 69 203 2.0 3.0 0.00 0.18 0.18 36 1012.3
20260506021634 69 231 1.0 4.0 0.00 0.18 0.18 36 1012.3
20260506021131 70 191 0.0 6.0 0.00 0.18 0.18 36 1012.1
20260506020628 70 251 3.0 4.0 0.00 0.18 0.18 35 1011.9
20260506020126 70 222 2.0 8.0 0.00 0.18 0.18 35 1012.0
20260506015623 70 181 2.0 7.0 0.00 0.18 0.18 34 1011.9
20260506015120 71 290 2.0 6.0 0.00 0.18 0.18 33 1012.0
20260506014618 71 240 5.0 6.0 0.00 0.18 0.18 32 1011.9
20260506014112 71 239 3.0 8.0 0.00 0.18 0.18 31 1012.0
20260506013611 71 159 3.0 4.0 0.00 0.18 0.18 30 1011.8
20260506013108 72 179 2.0 9.0 0.00 0.18 0.18 30 1011.8
20260506012604 73 192 3.0 7.0 0.00 0.18 0.18 29 1011.8
20260506012100 73 304 4.0 8.0 0.00 0.18 0.18 29 1011.9
20260506011559 73 286 5.0 9.0 0.00 0.18 0.18 29 1011.6
20260506011054 73 159 5.0 11.0 0.00 0.18 0.18 29 1011.6
20260506010548 73 232 4.0 7.0 0.00 0.18 0.18 29 1011.7
20260506010044 73 214 2.0 11.0 0.00 0.18 0.18 30 1011.7
20260506005542 73 285 3.0 15.0 0.00 0.18 0.18 30 1011.7
20260506005037 74 176 4.0 10.0 0.00 0.18 0.18 30 1011.4
20260506004535 75 208 2.0 11.0 0.00 0.18 0.18 30 1011.4
20260506004032 75 169 3.0 10.0 0.00 0.18 0.18 30 1011.4
20260506003528 75 223 1.0 8.0 0.00 0.18 0.18 30 1011.3
20260506003024 75 176 3.0 9.0 0.00 0.18 0.18 30 1011.2
20260506002520 75 280 3.0 10.0 0.00 0.18 0.18 29 1011.2
20260506002016 76 195 5.0 10.0 0.00 0.18 0.18 29 1011.2
20260506001513 76 235 3.0 7.0 0.00 0.18 0.18 28 1011.3
20260506001010 76 190 4.0 8.0 0.00 0.18 0.18 27 1011.0
20260506000508 77 309 8.0 15.0 0.00 0.18 0.18 27 1011.0
20260506000005 77 298 3.0 7.0 0.00 0.18 0.18 28 1010.9
20260505235503 77 282 3.0 9.0 0.00 0.18 0.18 28 1010.9
20260505234959 76 221 2.0 16.0 0.00 0.18 0.18 27 1011.0
20260505234456 77 193 7.0 10.0 0.00 0.18 0.18 27 1011.0
20260505233953 77 262 1.0 10.0 0.00 0.18 0.18 27 1010.9
20260505233451 78 183 3.0 8.0 0.00 0.18 0.18 27 1010.8
20260505232948 78 216 2.0 8.0 0.00 0.18 0.18 26 1010.7
20260505232446 79 284 7.0 13.0 0.00 0.18 0.18 26 1010.9
20260505231943 78 194 4.0 9.0 0.00 0.18 0.18 25 1010.9
20260505231440 78 291 4.0 10.0 0.00 0.18 0.18 27 1010.6
20260505230938 78 177 4.0 10.0 0.00 0.18 0.18 27 1010.9
20260505230436 78 178 4.0 9.0 0.00 0.18 0.18 28 1010.9
20260505225932 78 269 9.0 11.0 0.00 0.18 0.18 29 1010.8
20260505225429 77 219 5.0 10.0 0.00 0.18 0.18 29 1010.8
20260505224925 78 343 7.0 9.0 0.00 0.18 0.18 29 1010.8
20260505224422 79 238 2.0 7.0 0.00 0.18 0.18 28 1010.9
20260505223919 78 268 3.0 10.0 0.00 0.18 0.18 29 1011.0
20260505223416 76 274 4.0 6.0 0.00 0.18 0.18 29 1011.0
20260505222912 76 210 6.0 17.0 0.00 0.18 0.18 30 1011.2
20260505222408 76 267 5.0 16.0 0.00 0.18 0.18 29 1011.1
20260505221905 76 271 4.0 7.0 0.00 0.18 0.18 31 1011.3
20260505221402 77 195 3.0 15.0 0.00 0.18 0.18 31 1011.3
20260505220859 77 187 1.0 7.0 0.00 0.18 0.18 30 1011.2
20260505220356 77 187 2.0 8.0 0.00 0.18 0.18 30 1011.3
20260505215853 76 201 3.0 6.0 0.00 0.18 0.18 31 1011.4
20260505215351 77 172 5.0 8.0 0.00 0.18 0.18 31 1011.4
20260505214849 77 219 3.0 8.0 0.00 0.18 0.18 30 1011.7
20260505214346 77 151 2.0 9.0 0.00 0.18 0.18 30 1011.4
20260505213843 78 229 5.0 7.0 0.00 0.18 0.18 30 1011.8
20260505213342 76 303 1.0 4.0 0.00 0.18 0.18 31 1011.6
20260505212837 78 148 4.0 8.0 0.00 0.18 0.18 30 1011.7
20260505212334 78 246 4.0 13.0 0.00 0.18 0.18 32 1012.0
20260505211830 76 12 4.0 8.0 0.00 0.18 0.18 33 1011.8
20260505211328 75 211 0.0 3.0 0.00 0.18 0.18 36 1012.0
20260505210824 74 5 4.0 8.0 0.00 0.18 0.18 37 1012.1
20260505210321 74 263 8.0 9.0 0.00 0.18 0.18 41 1012.2
20260505205818 75 145 3.0 8.0 0.00 0.18 0.18 42 1012.3
20260505205317 76 273 5.0 9.0 0.00 0.18 0.18 40 1011.9
20260505204813 75 294 6.0 10.0 0.00 0.18 0.18 40 1012.2
20260505204311 77 224 3.0 6.0 0.00 0.18 0.18 41 1012.1
20260505203808 77 340 6.0 8.0 0.00 0.18 0.18 41 1012.2
20260505203305 77 208 3.0 9.0 0.00 0.18 0.18 42 1012.3
20260505202801 77 280 2.0 4.0 0.00 0.18 0.18 41 1012.3
20260505202257 77 259 4.0 10.0 0.00 0.18 0.18 38 1012.2
20260505201754 76 282 7.0 8.0 0.00 0.18 0.18 40 1012.3
20260505201251 76 334 8.0 10.0 0.00 0.18 0.18 41 1012.4
20260505200750 75 229 1.0 10.0 0.00 0.18 0.18 43 1012.5
20260505200246 75 201 1.0 6.0 0.00 0.18 0.18 43 1012.4
20260505195741 76 226 2.0 6.0 0.00 0.18 0.18 43 1012.5
20260505195239 75 209 1.0 3.0 0.00 0.18 0.18 44 1012.5
20260505194736 74 264 3.0 8.0 0.00 0.18 0.18 46 1012.5
20260505194233 75 227 3.0 7.0 0.00 0.18 0.18 47 1012.7
20260505193728 75 215 2.0 2.0 0.00 0.18 0.18 46 1012.6
20260505193226 74 317 4.0 6.0 0.00 0.18 0.18 48 1012.6
20260505192725 73 210 3.0 6.0 0.00 0.18 0.18 50 1012.6
20260505192222 73 266 5.0 9.0 0.00 0.18 0.18 50 1012.7
20260505191720 73 273 5.0 9.0 0.00 0.18 0.18 50 1012.6
20260505191218 73 201 4.0 7.0 0.00 0.18 0.18 50 1012.9
20260505190714 72 180 2.0 3.0 0.00 0.18 0.18 51 1012.9
20260505190214 72 218 2.0 3.0 0.00 0.18 0.18 52 1012.9
20260505185711 72 40 3.0 3.0 0.00 0.18 0.18 52 1013.0
20260505185207 71 215 1.0 4.0 0.00 0.18 0.18 54 1013.2
20260505184703 70 221 1.0 4.0 0.00 0.18 0.18 57 1013.4
20260505184201 69 293 2.0 6.0 0.00 0.18 0.18 57 1013.2
20260505183657 70 43 3.0 4.0 0.00 0.18 0.18 56 1013.3
20260505183155 71 331 3.0 4.0 0.00 0.18 0.18 54 1013.3
20260505182651 71 192 2.0 3.0 0.00 0.18 0.18 54 1013.5
20260505182148 71 130 4.0 4.0 0.00 0.18 0.18 56 1013.6
20260505181644 70 199 1.0 3.0 0.00 0.18 0.18 57 1013.5
20260505181142 69 189 3.0 3.0 0.00 0.18 0.18 57 1013.6
20260505180638 69 219 1.0 2.0 0.00 0.18 0.18 57 1013.6
20260505180136 70 226 1.0 1.0 0.00 0.18 0.18 57 1013.6
20260505175631 69 198 0.0 1.0 0.00 0.18 0.18 56 1013.7
20260505175128 68 190 1.0 3.0 0.00 0.18 0.18 58 1013.8
20260505174625 67 198 0.0 1.0 0.00 0.18 0.18 61 1013.8
20260505174121 68 271 2.0 4.0 0.00 0.18 0.18 61 1013.8
20260505173618 67 194 1.0 4.0 0.00 0.18 0.18 62 1014.0
20260505173115 67 199 0.0 3.0 0.00 0.18 0.18 61 1014.0
20260505172612 67 254 2.0 6.0 0.00 0.18 0.18 62 1013.9
20260505172109 68 179 2.0 6.0 0.00 0.18 0.18 61 1014.0
20260505171603 68 11 4.0 4.0 0.00 0.18 0.18 60 1013.9
20260505171101 68 244 1.0 4.0 0.00 0.18 0.18 60 1013.9
20260505170557 68 195 1.0 2.0 0.00 0.18 0.18 59 1013.9
20260505170054 68 222 1.0 2.0 0.00 0.18 0.18 60 1013.9
20260505165549 68 223 3.0 3.0 0.00 0.18 0.18 59 1013.8
20260505165045 68 269 3.0 3.0 0.00 0.18 0.18 59 1014.0
20260505164541 67 195 1.0 3.0 0.00 0.18 0.18 60 1013.9
20260505164039 68 265 2.0 3.0 0.00 0.18 0.18 60 1014.1
20260505163537 67 150 0.0 3.0 0.00 0.18 0.18 62 1013.9
20260505163033 67 238 2.0 2.0 0.00 0.18 0.18 61 1013.8
20260505162527 67 192 2.0 3.0 0.00 0.18 0.18 62 1013.9
20260505162024 66 178 1.0 1.0 0.00 0.18 0.18 65 1013.9
20260505161520 65 187 1.0 6.0 0.00 0.18 0.18 67 1013.9
20260505161017 65 222 1.0 3.0 0.00 0.18 0.18 68 1014.1
20260505160516 64 262 2.0 4.0 0.00 0.18 0.18 69 1014.0
20260505152946 64 203 0.0 1.0 0.00 0.18 0.18 75 1013.8
20260505152443 64 244 2.0 2.0 0.00 0.18 0.18 75 1013.7
20260505151938 64 201 1.0 1.0 0.00 0.18 0.18 78 1013.7
20260505151434 63 198 1.0 1.0 0.00 0.18 0.18 82 1013.7
20260505150931 62 206 1.0 1.0 0.00 0.18 0.18 84 1013.7
20260505150427 62 199 1.0 2.0 0.00 0.18 0.18 85 1013.7
20260505140352 60 226 0.0 0.0 0.00 0.18 0.18 92 1013.7
20260505124806 58 206 0.0 0.0 0.00 0.18 0.18 93 1012.7
20260505124303 58 203 0.0 0.0 0.00 0.18 0.18 93 1012.6
20260505123759 58 197 0.0 0.0 0.00 0.18 0.18 93 1012.6
20260505123255 58 198 0.0 0.0 0.00 0.18 0.18 93 1012.4
20260505122751 59 200 0.0 0.0 0.00 0.18 0.18 92 1012.5
20260505122249 59 199 0.0 0.0 0.00 0.18 0.18 92 1012.5
20260505121745 59 203 0.0 0.0 0.07 0.18 0.18 92 1012.6
20260505121242 59 203 0.0 0.0 0.07 0.18 0.18 92 1012.7
20260505120738 59 205 0.0 0.0 0.00 0.17 0.17 92 1012.8
20260505120235 59 210 0.0 0.0 0.00 0.17 0.17 92 1012.5
20260505115734 58 199 0.0 0.0 0.00 0.17 0.17 92 1012.6
20260505115231 58 191 1.0 1.0 0.00 0.17 0.17 92 1012.5
20260505114729 58 187 0.0 0.0 0.00 0.17 0.17 92 1012.4
20260505114224 58 185 0.0 4.0 0.00 0.17 0.17 92 1012.3
20260505113721 58 164 0.0 4.0 0.00 0.17 0.17 93 1012.2
20260505113217 58 192 0.0 3.0 0.00 0.17 0.17 93 1012.3
20260505112714 58 195 0.0 2.0 0.00 0.17 0.17 93 1012.4
20260505112212 58 189 1.0 2.0 0.00 0.17 0.17 93 1012.8
20260505111706 58 185 1.0 2.0 0.00 0.17 0.17 93 1012.7
20260505111202 58 176 1.0 4.0 0.00 0.17 0.17 92 1012.5
20260505110658 58 181 1.0 3.0 0.05 0.17 0.17 92 1012.6
20260505110156 58 143 3.0 7.0 0.05 0.17 0.17 92 1012.4
20260505102131 59 104 3.0 8.0 0.12 0.15 0.15 92 1012.8
20260505101630 59 158 3.0 9.0 0.07 0.14 0.14 91 1013.3
20260505101126 59 111 6.0 9.0 0.00 0.13 0.13 90 1013.7
20260505100622 59 140 2.0 6.0 0.00 0.13 0.13 90 1013.9
20260505100119 59 144 7.0 11.0 0.00 0.13 0.13 90 1013.8
20260505095615 59 122 4.0 11.0 0.00 0.13 0.13 89 1013.5
20260505095112 59 106 4.0 8.0 0.00 0.13 0.13 90 1013.5
20260505094608 59 124 7.0 9.0 0.00 0.13 0.13 91 1013.3
20260505094105 59 97 7.0 11.0 0.07 0.13 0.13 92 1013.3
20260505093601 59 132 8.0 10.0 0.07 0.13 0.13 92 1013.3
20260505093058 59 82 4.0 10.0 0.00 0.12 0.12 92 1013.4
20260505092556 59 123 3.0 6.0 0.00 0.12 0.12 92 1013.6
20260505092054 59 135 3.0 7.0 0.00 0.12 0.12 92 1013.7
20260505091550 59 180 2.0 7.0 0.00 0.12 0.12 92 1013.6
20260505091049 59 170 2.0 7.0 0.00 0.12 0.12 92 1013.8
20260505090547 58 148 4.0 10.0 0.00 0.12 0.12 92 1013.9
20260505090044 59 92 4.0 7.0 0.00 0.12 0.12 93 1013.5
20260505085542 59 115 2.0 6.0 0.00 0.12 0.12 93 1013.6
20260505085040 58 189 4.0 7.0 0.00 0.12 0.12 94 1013.8
20260505084538 59 126 2.0 7.0 0.05 0.12 0.12 94 1014.0
20260505084036 58 136 2.0 6.0 0.05 0.12 0.12 94 1014.0
20260505083532 59 155 2.0 3.0 0.07 0.11 0.11 94 1013.9
20260505083029 59 131 3.0 8.0 0.07 0.11 0.11 94 1014.4
20260505082525 59 98 6.0 7.0 0.05 0.10 0.10 94 1014.5
20260505082022 59 144 2.0 4.0 0.12 0.10 0.10 94 1015.0
20260505081518 59 134 4.0 7.0 0.12 0.09 0.09 94 1015.2
20260505081015 59 174 2.0 6.0 0.05 0.08 0.08 93 1015.0
20260505080511 59 136 2.0 6.0 0.07 0.07 0.07 93 1015.3
20260505080008 59 205 4.0 7.0 0.07 0.07 0.07 93 1015.5
20260505075504 59 115 4.0 6.0 0.00 0.06 0.06 93 1015.7
20260505075001 59 199 2.0 4.0 0.05 0.06 0.06 93 1015.8
20260505074459 59 109 6.0 8.0 0.05 0.06 0.06 93 1015.7
20260505073956 59 163 3.0 7.0 0.07 0.05 0.05 93 1015.7
20260505073453 59 139 4.0 7.0 0.05 0.04 0.04 93 1015.6
20260505072950 59 141 3.0 6.0 0.07 0.03 0.03 93 1015.8
20260505072446 59 121 2.0 4.0 0.12 0.03 0.03 93 1016.0
20260505071942 59 179 0.0 1.0 0.05 0.02 0.02 93 1016.4
20260505071438 60 196 0.0 2.0 0.00 0.01 0.01 92 1016.4
20260505070937 60 198 1.0 2.0 0.07 0.01 0.01 92 1015.9
20260505070433 60 187 1.0 2.0 0.07 0.01 0.01 91 1015.7
20260505065929 60 189 0.0 0.0 0.00 0.14 0.14 91 1015.8
20260505065426 60 201 0.0 0.0 0.07 0.14 0.14 90 1015.9
20260505064922 60 190 1.0 1.0 0.12 0.14 0.14 90 1016.0
20260505064419 60 188 0.0 1.0 0.05 0.13 0.13 89 1015.9
20260505063918 60 187 0.0 1.0 0.07 0.12 0.12 88 1015.9
20260505063414 60 181 0.0 0.0 0.07 0.12 0.12 88 1015.9
20260505062910 60 186 0.0 0.0 0.05 0.11 0.11 87 1015.7
20260505062408 60 182 0.0 0.0 0.05 0.11 0.11 86 1015.9
20260505061904 60 200 0.0 1.0 0.00 0.10 0.10 85 1015.7
20260505061403 60 192 0.0 0.0 0.00 0.10 0.10 85 1015.9
20260505060900 60 199 0.0 0.0 0.00 0.10 0.10 85 1015.8
20260505060356 60 207 0.0 0.0 0.00 0.10 0.10 85 1016.1
20260505055853 60 198 0.0 0.0 0.07 0.10 0.10 86 1015.9
20260505055349 60 201 0.0 0.0 0.07 0.10 0.10 85 1015.8
20260505054846 60 206 0.0 0.0 0.00 0.09 0.09 85 1015.7
20260505054343 60 206 0.0 0.0 0.00 0.09 0.09 84 1015.8
20260505053842 60 198 0.0 3.0 0.05 0.09 0.09 84 1015.8
20260505053338 60 196 1.0 2.0 0.05 0.09 0.09 84 1015.6
20260505052835 60 159 1.0 3.0 0.00 0.08 0.08 84 1015.6
20260505052332 60 148 2.0 2.0 0.00 0.08 0.08 84 1015.7
20260505051829 60 133 1.0 2.0 0.00 0.08 0.08 85 1015.6
20260505051326 59 141 2.0 3.0 0.00 0.08 0.08 85 1015.5
20260505050824 59 175 1.0 2.0 0.07 0.08 0.08 85 1015.5
20260505050323 59 112 2.0 4.0 0.07 0.08 0.08 85 1015.4
20260505041752 58 135 2.0 3.0 0.07 0.06 0.06 82 1015.9
20260505041249 58 169 1.0 2.0 0.07 0.06 0.06 82 1015.9
20260505040747 59 197 0.0 1.0 0.05 0.05 0.05 80 1015.9
20260505040244 59 219 1.0 1.0 0.12 0.05 0.05 77 1016.0
20260505035741 60 194 0.0 0.0 0.07 0.04 0.04 74 1015.9
20260505035237 60 198 0.0 1.0 0.00 0.03 0.03 69 1015.8
20260505034734 61 182 0.0 1.0 0.00 0.03 0.03 67 1015.8
20260505034231 62 175 1.0 2.0 0.00 0.03 0.03 66 1015.6
20260505033727 62 189 1.0 3.0 0.00 0.03 0.03 64 1015.5